TimeMDT,TemperatureF,Dew PointF,Humidity,Sea Level PressureIn,VisibilityMPH,Wind Direction,Wind SpeedMPH,Gust SpeedMPH,PrecipitationIn,Events,Conditions,WindDirDegrees,DateUTC
12:15 AM,48.2,12.2,24,30.49,10.0,North,-9999.0,-,N/A,,Clear,0,2013-06-15 06:15:00
12:35 AM,46.4,12.2,25,30.49,10.0,North,-9999.0,-,N/A,,Clear,0,2013-06-15 06:35:00
12:55 AM,48.2,10.4,22,30.49,10.0,North,-9999.0,-,N/A,,Clear,0,2013-06-15 06:55:00
1:15 AM,46.4,10.4,23,30.49,10.0,North,-9999.0,-,N/A,,Clear,0,2013-06-15 07:15:00
1:35 AM,46.4,10.4,23,30.48,10.0,North,-9999.0,-,N/A,,Clear,0,2013-06-15 07:35:00
1:55 AM,46.4,10.4,23,30.48,10.0,North,-9999.0,-,N/A,,Clear,0,2013-06-15 07:55:00
2:15 AM,46.4,10.4,23,30.48,10.0,North,-9999.0,-,N/A,,Clear,0,2013-06-15 08:15:00
2:35 AM,46.4,10.4,23,30.48,10.0,North,-9999.0,-,N/A,,Clear,0,2013-06-15 08:35:00
2:55 AM,46.4,10.4,23,30.48,10.0,North,-9999.0,-,N/A,,Clear,0,2013-06-15 08:55:00
3:15 AM,44.6,12.2,27,30.47,10.0,North,-9999.0,-,N/A,,Clear,0,2013-06-15 09:15:00
3:35 AM,44.6,14.0,29,30.47,10.0,North,-9999.0,-,N/A,,Clear,0,2013-06-15 09:35:00
3:55 AM,42.8,17.6,36,30.48,10.0,North,-9999.0,-,N/A,,Clear,0,2013-06-15 09:55:00
4:15 AM,42.8,21.2,42,30.48,10.0,North,-9999.0,-,N/A,,Clear,0,2013-06-15 10:15:00
4:35 AM,42.8,26.6,53,30.48,10.0,North,-9999.0,-,N/A,,Clear,0,2013-06-15 10:35:00
4:55 AM,41.0,28.4,61,30.49,10.0,North,-9999.0,-,N/A,,Clear,0,2013-06-15 10:55:00
5:15 AM,41.0,30.2,65,30.49,10.0,North,-9999.0,-,N/A,,Clear,0,2013-06-15 11:15:00
5:35 AM,41.0,32.0,70,30.49,10.0,North,-9999.0,-,N/A,,Clear,0,2013-06-15 11:35:00
5:55 AM,41.0,32.0,70,30.50,10.0,North,-9999.0,-,N/A,,Clear,0,2013-06-15 11:55:00
6:15 AM,42.8,32.0,66,30.51,10.0,North,-9999.0,-,N/A,,Clear,0,2013-06-15 12:15:00
6:35 AM,42.8,32.0,66,30.51,10.0,North,-9999.0,-,N/A,,Clear,0,2013-06-15 12:35:00
6:55 AM,44.6,32.0,61,30.52,10.0,North,-9999.0,-,N/A,,Clear,0,2013-06-15 12:55:00
7:15 AM,44.6,32.0,61,30.52,10.0,North,-9999.0,-,N/A,,Clear,0,2013-06-15 13:15:00
7:35 AM,44.6,32.0,61,30.52,10.0,North,-9999.0,-,N/A,,Clear,0,2013-06-15 13:35:00
7:55 AM,46.4,32.0,57,30.53,10.0,North,-9999.0,-,N/A,,Clear,0,2013-06-15 13:55:00
8:15 AM,48.2,32.0,54,30.54,10.0,North,-9999.0,-,N/A,,Clear,0,2013-06-15 14:15:00
8:35 AM,50.0,32.0,50,30.54,10.0,North,-9999.0,-,N/A,,Clear,0,2013-06-15 14:35:00
8:55 AM,51.8,28.4,41,30.54,10.0,North,-9999.0,-,N/A,,Clear,0,2013-06-15 14:55:00
9:15 AM,51.8,32.0,47,30.54,10.0,North,-9999.0,-,N/A,,Clear,0,2013-06-15 15:15:00
9:35 AM,51.8,32.0,47,30.54,10.0,North,-9999.0,-,N/A,,Clear,0,2013-06-15 15:35:00
9:55 AM,51.8,30.2,44,30.54,10.0,North,-9999.0,-,N/A,,Clear,0,2013-06-15 15:55:00
10:15 AM,53.6,28.4,38,30.54,10.0,North,-9999.0,-,N/A,,Clear,0,2013-06-15 16:15:00
10:35 AM,53.6,26.6,35,30.55,10.0,North,-9999.0,-,N/A,,Clear,0,2013-06-15 16:35:00
10:55 AM,53.6,26.6,35,30.55,10.0,North,-9999.0,-,N/A,,Clear,0,2013-06-15 16:55:00
11:15 AM,55.4,24.8,31,30.55,10.0,North,-9999.0,-,N/A,,Clear,0,2013-06-15 17:15:00
11:35 AM,55.4,24.8,31,30.55,10.0,North,-9999.0,-,N/A,,Clear,0,2013-06-15 17:35:00
11:55 AM,53.6,23.0,30,30.55,10.0,North,-9999.0,-,N/A,,Scattered Clouds,0,2013-06-15 17:55:00
12:15 PM,55.4,23.0,29,30.55,10.0,North,-9999.0,-,N/A,,Scattered Clouds,0,2013-06-15 18:15:00
12:35 PM,55.4,26.6,33,30.55,10.0,North,-9999.0,-,N/A,,Scattered Clouds,0,2013-06-15 18:35:00
12:55 PM,53.6,26.6,35,30.55,10.0,North,-9999.0,-,N/A,,Mostly Cloudy,0,2013-06-15 18:55:00
1:15 PM,55.4,26.6,33,30.55,10.0,North,-9999.0,-,N/A,,Mostly Cloudy,0,2013-06-15 19:15:00
1:35 PM,57.2,24.8,29,30.54,10.0,North,-9999.0,-,N/A,Thunderstorm,Scattered Clouds,0,2013-06-15 19:35:00
1:55 PM,57.2,26.6,31,30.53,10.0,North,-9999.0,-,N/A,,Clear,0,2013-06-15 19:55:00
2:15 PM,57.2,23.0,27,30.53,10.0,North,-9999.0,-,N/A,,Scattered Clouds,0,2013-06-15 20:15:00
2:35 PM,59.0,24.8,27,30.54,10.0,North,-9999.0,-,N/A,,Clear,0,2013-06-15 20:35:00
2:55 PM,55.4,23.0,29,30.52,10.0,North,-9999.0,-,N/A,,Scattered Clouds,0,2013-06-15 20:55:00
3:15 PM,55.4,23.0,29,30.52,10.0,North,-9999.0,-,N/A,,Scattered Clouds,0,2013-06-15 21:15:00
3:35 PM,59.0,24.8,27,30.52,10.0,North,-9999.0,-,N/A,,Clear,0,2013-06-15 21:35:00
3:55 PM,59.0,23.0,25,30.52,10.0,North,-9999.0,-,N/A,,Clear,0,2013-06-15 21:55:00
4:15 PM,57.2,24.8,29,30.52,10.0,North,-9999.0,-,N/A,,Clear,0,2013-06-15 22:15:00
4:35 PM,57.2,24.8,29,30.52,10.0,North,-9999.0,-,N/A,,Clear,0,2013-06-15 22:35:00
4:55 PM,55.4,23.0,29,30.51,10.0,North,-9999.0,-,N/A,,Clear,0,2013-06-15 22:55:00
5:15 PM,55.4,23.0,29,30.51,10.0,North,-9999.0,-,N/A,,Clear,0,2013-06-15 23:15:00
5:35 PM,53.6,21.2,28,30.51,10.0,North,-9999.0,-,N/A,,Mostly Cloudy,0,2013-06-15 23:35:00
5:55 PM,51.8,23.0,33,30.52,10.0,North,-9999.0,-,N/A,,Overcast,0,2013-06-15 23:55:00
6:15 PM,51.8,23.0,33,30.52,10.0,North,-9999.0,-,N/A,,Mostly Cloudy,0,2013-06-16 00:15:00
6:35 PM,50.0,24.8,37,30.54,10.0,North,-9999.0,-,N/A,,Mostly Cloudy,0,2013-06-16 00:35:00
6:55 PM,48.2,24.8,40,30.55,10.0,North,-9999.0,-,N/A,,Overcast,0,2013-06-16 00:55:00
7:15 PM,46.4,26.6,46,30.56,10.0,North,-9999.0,-,N/A,,Mostly Cloudy,0,2013-06-16 01:15:00
7:35 PM,46.4,24.8,43,30.56,10.0,North,-9999.0,-,N/A,,Mostly Cloudy,0,2013-06-16 01:35:00
7:55 PM,46.4,26.6,46,30.57,10.0,North,-9999.0,-,N/A,,Overcast,0,2013-06-16 01:55:00
8:15 PM,44.6,28.4,53,30.59,10.0,North,-9999.0,-,N/A,,Overcast,0,2013-06-16 02:15:00
8:35 PM,44.6,28.4,53,30.59,10.0,North,-9999.0,-,N/A,,Overcast,0,2013-06-16 02:35:00
8:55 PM,44.6,28.4,53,30.59,10.0,North,-9999.0,-,N/A,,Overcast,0,2013-06-16 02:55:00
9:15 PM,42.8,28.4,57,30.58,10.0,North,-9999.0,-,N/A,,Overcast,0,2013-06-16 03:15:00
9:35 PM,41.0,28.4,61,30.58,10.0,North,-9999.0,-,N/A,,Mostly Cloudy,0,2013-06-16 03:35:00
9:55 PM,41.0,28.4,61,30.57,10.0,North,-9999.0,-,N/A,,Clear,0,2013-06-16 03:55:00
10:15 PM,42.8,28.4,57,30.59,10.0,North,-9999.0,-,N/A,,Clear,0,2013-06-16 04:15:00
10:35 PM,42.8,28.4,57,30.58,10.0,North,-9999.0,-,N/A,,Clear,0,2013-06-16 04:35:00
10:55 PM,41.0,30.2,65,30.57,7.0,North,-9999.0,-,N/A,,Clear,0,2013-06-16 04:55:00
11:15 PM,41.0,30.2,65,30.58,10.0,North,-9999.0,-,N/A,,Clear,0,2013-06-16 05:15:00
11:35 PM,41.0,30.2,65,30.58,10.0,North,-9999.0,-,N/A,,Clear,0,2013-06-16 05:35:00
11:55 PM,41.0,30.2,65,30.57,10.0,North,-9999.0,-,N/A,,Clear,0,2013-06-16 05:55:00